Time,TemperatureF,DewpointF,PressureIn,WindDirection,WindDirectionDegrees,WindSpeedMPH,WindSpeedGustMPH,Humidity,HourlyPrecipIn,Conditions,Clouds,dailyrainin,SoftwareType,DateUTC
2013-08-24 09:57:00,66.3,59.3,30.39,ESE,113,0.0,0.0,78,0.00,,,0.00,WUHU216HW,2013-08-24 13:57:00,
2013-08-24 10:02:00,66.7,59.3,30.39,SE,135,0.0,0.0,77,0.00,,,0.00,WUHU216HW,2013-08-24 14:02:00,
2013-08-24 10:07:00,67.2,59.4,30.39,ESE,113,0.0,0.6,76,0.00,,,0.00,WUHU216HW,2013-08-24 14:07:00,
2013-08-24 10:12:00,67.8,60.0,30.39,ESE,113,1.1,1.1,76,0.00,,,0.00,WUHU216HW,2013-08-24 14:12:00,
2013-08-24 10:17:00,68.3,60.1,30.39,ESE,113,0.0,1.1,75,0.00,,,0.00,WUHU216HW,2013-08-24 14:17:00,
2013-08-24 10:22:00,69.2,60.5,30.39,ESE,113,0.0,1.1,74,0.00,,,0.00,WUHU216HW,2013-08-24 14:22:00,
2013-08-24 10:27:00,69.8,60.2,30.39,ESE,113,0.0,0.0,72,0.00,,,0.00,WUHU216HW,2013-08-24 14:27:00,
2013-08-24 10:32:00,70.5,60.6,30.39,ESE,113,0.0,0.0,71,0.00,,,0.00,WUHU216HW,2013-08-24 14:32:00,
2013-08-24 10:37:00,71.4,59.8,30.39,SE,135,1.3,1.7,67,0.00,,,0.00,WUHU216HW,2013-08-24 14:37:00,
2013-08-24 10:42:00,72.1,60.1,30.39,SE,135,0.0,1.7,66,0.00,,,0.00,WUHU216HW,2013-08-24 14:42:00,
2013-08-24 10:47:00,72.8,60.3,30.39,ESE,113,1.5,1.5,65,0.00,,,0.00,WUHU216HW,2013-08-24 14:47:00,
2013-08-24 10:52:00,73.5,60.1,30.39,ESE,113,0.0,1.5,63,0.00,,,0.00,WUHU216HW,2013-08-24 14:52:00,
2013-08-24 10:57:00,74.1,60.2,30.39,SE,135,1.5,2.4,62,0.00,,,0.00,WUHU216HW,2013-08-24 14:57:00,
2013-08-24 11:02:00,74.4,60.1,30.39,SE,135,0.8,2.4,61,0.00,,,0.00,WUHU216HW,2013-08-24 15:02:00,
2013-08-24 11:07:00,75.3,60.6,30.39,ESE,113,0.0,3.3,60,0.00,,,0.00,WUHU216HW,2013-08-24 15:07:00,
2013-08-24 11:12:00,75.7,60.9,30.38,SSW,203,0.0,3.3,60,0.00,,,0.00,WUHU216HW,2013-08-24 15:12:00,
2013-08-24 11:17:00,76.1,60.7,30.38,ENE,68,0.6,2.4,59,0.00,,,0.00,WUHU216HW,2013-08-24 15:17:00,
2013-08-24 11:22:00,76.4,60.5,30.38,ENE,68,0.0,2.4,58,0.00,,,0.00,WUHU216HW,2013-08-24 15:22:00,
2013-08-24 11:27:00,76.8,60.8,30.38,ENE,68,0.0,2.0,58,0.00,,,0.00,WUHU216HW,2013-08-24 15:27:00,
2013-08-24 11:32:00,77.3,61.3,30.38,South,180,0.6,0.6,58,0.00,,,0.00,WUHU216HW,2013-08-24 15:32:00,
2013-08-24 11:37:00,78.0,61.0,30.39,ESE,113,2.2,2.2,56,0.00,,,0.00,WUHU216HW,2013-08-24 15:37:00,
2013-08-24 11:42:00,78.0,60.5,30.39,SSE,158,0.0,3.5,55,0.00,,,0.00,WUHU216HW,2013-08-24 15:42:00,
2013-08-24 11:47:00,78.4,60.9,30.39,SSE,158,1.3,3.5,55,0.00,,,0.00,WUHU216HW,2013-08-24 15:47:00,
2013-08-24 11:52:00,78.9,60.8,30.39,SSE,158,0.6,2.9,54,0.00,,,0.00,WUHU216HW,2013-08-24 15:52:00,
2013-08-24 11:57:00,78.9,60.8,30.39,South,180,0.0,2.9,54,0.00,,,0.00,WUHU216HW,2013-08-24 15:57:00,
2013-08-24 12:02:00,79.1,60.5,30.38,SE,135,0.0,0.8,53,0.00,,,0.00,WUHU216HW,2013-08-24 16:02:00,
2013-08-24 12:07:00,79.3,60.1,30.38,South,180,0.0,3.3,52,0.00,,,0.00,WUHU216HW,2013-08-24 16:07:00,
2013-08-24 12:12:00,79.3,60.1,30.38,SSE,158,0.0,3.3,52,0.00,,,0.00,WUHU216HW,2013-08-24 16:12:00,
2013-08-24 12:17:00,79.5,60.3,30.38,South,180,0.0,1.1,52,0.00,,,0.00,WUHU216HW,2013-08-24 16:17:00,
2013-08-24 12:22:00,79.7,60.4,30.38,SSE,158,0.0,1.1,52,0.00,,,0.00,WUHU216HW,2013-08-24 16:22:00,
2013-08-24 12:27:00,79.8,60.1,30.38,SW,225,2.9,2.9,51,0.00,,,0.00,WUHU216HW,2013-08-24 16:27:00,
2013-08-24 12:32:00,80.2,60.4,30.39,SSW,203,0.0,2.9,51,0.00,,,0.00,WUHU216HW,2013-08-24 16:32:00,
2013-08-24 12:37:00,80.2,59.3,30.39,SSW,203,4.6,4.6,49,0.00,,,0.00,WUHU216HW,2013-08-24 16:37:00,
2013-08-24 12:42:00,80.2,59.3,30.39,SSW,203,0.0,4.6,49,0.00,,,0.00,WUHU216HW,2013-08-24 16:42:00,
2013-08-24 12:47:00,80.2,59.3,30.39,South,180,4.4,4.6,49,0.00,,,0.00,WUHU216HW,2013-08-24 16:47:00,
2013-08-24 12:52:00,80.0,58.5,30.38,South,180,0.8,4.4,48,0.00,,,0.00,WUHU216HW,2013-08-24 16:52:00,
2013-08-24 12:57:00,79.8,58.3,30.39,South,180,0.0,2.0,48,0.00,,,0.00,WUHU216HW,2013-08-24 16:57:00,
2013-08-24 13:02:00,79.8,57.1,30.38,SSW,203,2.0,5.1,46,0.00,,,0.00,WUHU216HW,2013-08-24 17:02:00,
2013-08-24 13:07:00,80.0,57.9,30.38,SE,135,0.0,5.1,47,0.00,,,0.00,WUHU216HW,2013-08-24 17:07:00,
2013-08-24 13:12:00,80.0,57.9,30.37,South,180,0.8,2.9,47,0.00,,,0.00,WUHU216HW,2013-08-24 17:12:00,
2013-08-24 13:17:00,80.2,57.9,30.38,SSE,158,0.0,2.9,47,0.00,,,0.00,WUHU216HW,2013-08-24 17:17:00,
2013-08-24 13:22:00,80.2,58.1,30.38,SSE,158,1.7,3.3,47,0.00,,,0.00,WUHU216HW,2013-08-24 17:22:00,
2013-08-24 13:27:00,80.4,58.2,30.38,South,180,0.0,3.3,47,0.00,,,0.00,WUHU216HW,2013-08-24 17:27:00,
2013-08-24 13:32:00,80.4,58.2,30.38,SE,135,0.8,1.7,47,0.00,,,0.00,WUHU216HW,2013-08-24 17:32:00,
2013-08-24 13:37:00,81.1,58.9,30.38,SE,135,1.7,1.7,47,0.00,,,0.00,WUHU216HW,2013-08-24 17:37:00,
2013-08-24 13:42:00,81.3,58.4,30.38,SW,225,4.4,6.2,46,0.00,,,0.00,WUHU216HW,2013-08-24 17:42:00,
2013-08-24 13:47:00,81.3,58.4,30.37,SW,225,5.5,6.2,46,0.00,,,0.00,WUHU216HW,2013-08-24 17:47:00,
2013-08-24 13:52:00,81.5,58.0,30.37,SSW,203,0.0,5.5,45,0.00,,,0.00,WUHU216HW,2013-08-24 17:52:00,
2013-08-24 13:57:00,81.6,58.1,30.37,SSW,203,3.8,3.8,45,0.00,,,0.00,WUHU216HW,2013-08-24 17:57:00,
2013-08-24 14:02:00,82.0,58.4,30.37,SE,135,0.8,7.3,45,0.00,,,0.00,WUHU216HW,2013-08-24 18:02:00,
2013-08-24 14:07:00,82.0,58.4,30.36,ENE,68,0.0,7.3,45,0.00,,,0.00,WUHU216HW,2013-08-24 18:07:00,
2013-08-24 14:12:00,82.5,58.9,30.36,SSW,203,3.8,3.8,45,0.00,,,0.00,WUHU216HW,2013-08-24 18:12:00,
2013-08-24 14:17:00,82.9,58.7,30.36,SSW,203,7.3,7.3,44,0.00,,,0.00,WUHU216HW,2013-08-24 18:17:00,
2013-08-24 14:22:00,83.1,59.5,30.36,SSW,203,0.0,7.3,45,0.00,,,0.00,WUHU216HW,2013-08-24 18:22:00,
2013-08-24 14:27:00,83.4,59.2,30.36,SE,135,0.0,1.5,44,0.00,,,0.00,WUHU216HW,2013-08-24 18:27:00,
2013-08-24 14:32:00,83.4,59.2,30.37,SSE,158,0.0,3.3,44,0.00,,,0.00,WUHU216HW,2013-08-24 18:32:00,
2013-08-24 14:37:00,83.8,59.5,30.36,ESE,113,2.0,3.3,44,0.00,,,0.00,WUHU216HW,2013-08-24 18:37:00,
2013-08-24 14:42:00,83.8,59.5,30.36,ESE,113,2.0,2.0,44,0.00,,,0.00,WUHU216HW,2013-08-24 18:42:00,